Location: Unspecified
(0.0000°N, 0.0000°E)
Time: 17:58:26
(UTC+01:00)

Cosmos 2237 Rocket - Visible Passes

Search period start: 16 December 2017 00:00
Search period end: 26 December 2017 00:00
Orbit: 834 x 851 km, 71.0° (Epoch: 15 December)

Date Brightness Start Highest point End Pass type
(mag) Time Alt. Az. Time Alt. Az. Time Alt. Az.
16 Dec 4.8 22:05:03 10° SSW 22:05:27 12° SSW 22:05:27 12° SSW visible
17 Dec 4.5 21:50:12 10° SSW 21:51:27 17° SSW 21:51:27 17° SSW visible
18 Dec 4.0 21:35:22 10° SSW 21:37:30 24° S 21:37:30 24° S visible
19 Dec 3.4 21:20:32 10° S 21:23:38 34° S 21:23:38 34° S visible
20 Dec 2.8 21:05:43 10° S 21:09:49 47° S 21:09:49 47° S visible
21 Dec 2.2 20:50:53 10° S 20:56:04 62° SE 20:56:04 62° SE visible
22 Dec 2.2 20:36:04 10° S 20:41:40 60° ESE 20:42:23 55° ENE visible
23 Dec 2.3 20:21:16 10° S 20:26:50 56° ESE 20:28:45 38° NE visible
24 Dec 2.4 20:06:27 10° S 20:11:58 52° ESE 20:15:11 24° NE visible
25 Dec 2.5 19:51:40 10° S 19:57:08 49° ESE 20:01:41 15° NE visible
25 Dec 4.9 21:39:30 10° W 21:40:55 11° WNW 21:42:20 10° WNW visible
